Location: *
(51.0333°S, 178.4667°E)
Time: 18:08:05
(UTC+00:00)

STARLINK-80 - Pass Details

Date: 15 November 2019
Orbit: 491 x 497 km, 53.0° (Epoch: 14 December)

Event Time Altitude Azimuth Distance (km) Brightness Sun altitude
Rises 10:20:20 0° 250° (WSW) 2,604 7.7 -17.7°
Reaches altitude 10° 10:22:33 10° 254° (WSW) 1,717 6.6 -17.9°
Maximum altitude 10:26:22 60° 333° (NNW) 582 3.5 -18.1°
Enters shadow 10:27:06 49° 20° (NNE) 657 3.5 -18.1°
